VLG310 LEGR-LEVC

Flight info

Callsign VLG310
Flight time 0h 41m
Altitude 28000
Route VIBAS M985 ASTRO
Aircraft A20N/M-SDE2E3FGHIRWXY/LB1

Departure

Time 2026-04-19 06:17
Airport F.G.L. Airport Granada-Jaén Airport (LEGR)

Arrival

Time 2026-04-19 06:58
Airport Valencia Airport (LEVC)
Time Latitude Longitude Altitude Speed Heading
2026-04-19 05:56 37.18637 -3.77423 1877 ft 0 kts 265°
2026-04-19 06:10 37.18636 -3.77432 1877 ft 3 kts 265°
2026-04-19 06:11 37.18639 -3.77467 1877 ft 5 kts 289°
2026-04-19 06:11 37.18680 -3.77493 1874 ft 10 kts 343°
2026-04-19 06:11 37.18710 -3.77571 1873 ft 11 kts 270°
2026-04-19 06:12 37.18709 -3.77787 1872 ft 14 kts 269°
2026-04-19 06:12 37.18708 -3.77910 1871 ft 15 kts 269°
2026-04-19 06:12 37.18707 -3.78044 1870 ft 16 kts 270°
2026-04-19 06:12 37.18705 -3.78187 1868 ft 17 kts 269°
2026-04-19 06:13 37.18703 -3.78340 1867 ft 18 kts 269°
2026-04-19 06:13 37.18703 -3.78499 1865 ft 19 kts 270°
2026-04-19 06:13 37.18702 -3.78661 1865 ft 19 kts 269°
2026-04-19 06:13 37.18701 -3.78823 1865 ft 19 kts 270°
2026-04-19 06:14 37.18698 -3.78984 1864 ft 19 kts 269°
2026-04-19 06:14 37.18698 -3.79147 1863 ft 19 kts 269°
2026-04-19 06:14 37.18696 -3.79310 1861 ft 17 kts 269°
2026-04-19 06:14 37.18749 -3.79405 1859 ft 16 kts
2026-04-19 06:15 37.18847 -3.79329 1857 ft 17 kts 59°
2026-04-19 06:15 37.18859 -3.79279 1857 ft 0 kts 80°
2026-04-19 06:15 37.18861 -3.79268 1857 ft 7 kts 82°
2026-04-19 06:16 37.18863 -3.79116 1858 ft 34 kts 89°
2026-04-19 06:16 37.18868 -3.78506 1861 ft 104 kts 89°
2026-04-19 06:16 37.18876 -3.77345 1867 ft 161 kts 89°
2026-04-19 06:16 37.18884 -3.75836 2244 ft 177 kts 90°
2026-04-19 06:17 37.18856 -3.74313 2933 ft 178 kts 90°
2026-04-19 06:17 37.18876 -3.72802 3692 ft 176 kts 89°
2026-04-19 06:17 37.18901 -3.71246 4191 ft 186 kts 90°
2026-04-19 06:17 37.18914 -3.69581 4675 ft 198 kts 90°
2026-04-19 06:18 37.18926 -3.67805 5101 ft 213 kts 89°
2026-04-19 06:18 37.19268 -3.65926 5363 ft 240 kts 59°
2026-04-19 06:18 37.20519 -3.64490 5921 ft 254 kts 30°
2026-04-19 06:18 37.22103 -3.63503 6692 ft 261 kts 20°
2026-04-19 06:19 37.23948 -3.63152 7191 ft 279 kts
2026-04-19 06:19 37.25911 -3.63204 7907 ft 287 kts 358°
2026-04-19 06:19 37.27906 -3.63281 8749 ft 290 kts 359°
2026-04-19 06:19 37.29920 -3.63301 9577 ft 293 kts
2026-04-19 06:20 37.31951 -3.63272 10358 ft 296 kts
2026-04-19 06:20 37.34036 -3.63216 10992 ft 308 kts
2026-04-19 06:20 37.36231 -3.63145 11417 ft 324 kts
2026-04-19 06:20 37.38476 -3.62773 12013 ft 332 kts 18°
2026-04-19 06:21 37.40498 -3.61419 12795 ft 334 kts 39°
2026-04-19 06:21 37.42161 -3.59396 13582 ft 337 kts 45°
2026-04-19 06:21 37.43779 -3.57260 14305 ft 341 kts 46°
2026-04-19 06:21 37.45408 -3.55104 15009 ft 345 kts 45°
2026-04-19 06:22 37.47070 -3.52918 15705 ft 349 kts 45°
2026-04-19 06:22 37.48752 -3.50717 16394 ft 353 kts 45°
2026-04-19 06:22 37.50456 -3.48494 17081 ft 357 kts 45°
2026-04-19 06:22 37.52181 -3.46247 17743 ft 360 kts 45°
2026-04-19 06:23 37.53925 -3.43977 18396 ft 364 kts 45°
2026-04-19 06:23 37.55685 -3.41683 19040 ft 368 kts 44°
2026-04-19 06:23 37.57461 -3.39369 19666 ft 372 kts 44°
2026-04-19 06:23 37.59258 -3.37027 20277 ft 375 kts 44°
2026-04-19 06:24 37.61077 -3.34655 20882 ft 379 kts 44°
2026-04-19 06:24 37.62914 -3.32260 21392 ft 385 kts 44°
2026-04-19 06:24 37.64781 -3.29821 21859 ft 392 kts 44°
2026-04-19 06:24 37.66677 -3.27344 22398 ft 396 kts 44°
2026-04-19 06:25 37.68585 -3.24845 22951 ft 399 kts 44°
2026-04-19 06:25 37.70513 -3.22321 23499 ft 402 kts 44°
2026-04-19 06:25 37.72454 -3.19776 24025 ft 406 kts 44°
2026-04-19 06:25 37.74414 -3.17208 24543 ft 409 kts 44°
2026-04-19 06:26 37.76384 -3.14622 25084 ft 411 kts 44°
2026-04-19 06:26 37.78349 -3.12041 25712 ft 409 kts 44°
2026-04-19 06:26 37.80311 -3.09461 26337 ft 408 kts 44°
2026-04-19 06:26 37.82268 -3.06885 26887 ft 408 kts 44°
2026-04-19 06:27 37.84233 -3.04298 27351 ft 411 kts 44°
2026-04-19 06:27 37.86205 -3.01699 27805 ft 413 kts 44°
2026-04-19 06:27 37.88191 -2.99082 28140 ft 415 kts 44°
2026-04-19 06:27 37.90185 -2.96449 28174 ft 415 kts 44°
2026-04-19 06:28 37.94162 -2.91192 28182 ft 415 kts 44°
2026-04-19 06:28 37.98151 -2.85909 28194 ft 416 kts 44°
2026-04-19 06:29 38.02136 -2.80622 28212 ft 416 kts 44°
2026-04-19 06:29 38.06110 -2.75342 28226 ft 415 kts 44°
2026-04-19 06:30 38.10086 -2.70050 28228 ft 415 kts 44°
2026-04-19 06:30 38.14062 -2.64750 28223 ft 416 kts 44°
2026-04-19 06:31 38.18028 -2.59455 28218 ft 415 kts 44°
2026-04-19 06:31 38.21990 -2.54156 28217 ft 414 kts 44°
2026-04-19 06:32 38.25951 -2.48850 28219 ft 414 kts 45°
2026-04-19 06:32 38.29896 -2.43555 28214 ft 414 kts 45°
2026-04-19 06:33 38.33837 -2.38257 28210 ft 413 kts 45°
2026-04-19 06:33 38.37620 -2.32772 28204 ft 414 kts 50°
2026-04-19 06:34 38.41170 -2.27026 28196 ft 414 kts 51°
2026-04-19 06:34 38.44708 -2.21273 28190 ft 413 kts 51°
2026-04-19 06:35 38.48237 -2.15540 28185 ft 413 kts 50°
2026-04-19 06:35 38.51775 -2.09784 28183 ft 413 kts 50°
2026-04-19 06:36 38.55301 -2.04043 28179 ft 413 kts 50°
2026-04-19 06:36 38.58825 -1.98296 28177 ft 412 kts 51°
2026-04-19 06:37 38.62350 -1.92534 28178 ft 412 kts 50°
2026-04-19 06:37 38.65870 -1.86772 28175 ft 412 kts 51°
2026-04-19 06:38 38.67626 -1.83894 28023 ft 413 kts 50°
2026-04-19 06:38 38.69379 -1.81018 27672 ft 409 kts 51°
2026-04-19 06:38 38.71114 -1.78168 27226 ft 407 kts 51°
2026-04-19 06:38 38.72839 -1.75330 26692 ft 406 kts 51°
2026-04-19 06:39 38.74567 -1.72486 26092 ft 407 kts 51°
2026-04-19 06:39 38.76297 -1.69638 25467 ft 408 kts 51°
2026-04-19 06:39 38.78034 -1.66774 24805 ft 410 kts 51°
2026-04-19 06:39 38.79780 -1.63893 24183 ft 411 kts 51°
2026-04-19 06:40 38.81515 -1.61027 23722 ft 407 kts 51°
2026-04-19 06:40 38.83238 -1.58177 23259 ft 404 kts 51°
2026-04-19 06:40 38.84943 -1.55354 22800 ft 400 kts 51°
2026-04-19 06:40 38.86635 -1.52549 22354 ft 397 kts 51°
2026-04-19 06:41 38.88308 -1.49776 21911 ft 394 kts 51°
2026-04-19 06:41 38.89975 -1.47010 21462 ft 391 kts 51°
2026-04-19 06:41 38.91621 -1.44277 21014 ft 388 kts 51°
2026-04-19 06:41 38.93254 -1.41564 20573 ft 385 kts 51°
2026-04-19 06:42 38.94876 -1.38866 20136 ft 382 kts 51°
2026-04-19 06:42 38.96484 -1.36190 19696 ft 379 kts 51°
2026-04-19 06:42 38.98080 -1.33530 19262 ft 376 kts 51°
2026-04-19 06:42 38.99663 -1.30890 18834 ft 373 kts 51°
2026-04-19 06:43 39.01232 -1.28272 18409 ft 370 kts 51°
2026-04-19 06:43 39.02790 -1.25670 17983 ft 367 kts 51°
2026-04-19 06:43 39.04330 -1.23094 17563 ft 364 kts 51°
2026-04-19 06:43 39.05863 -1.20531 17133 ft 362 kts 51°
2026-04-19 06:44 39.07386 -1.17982 16697 ft 359 kts 51°
2026-04-19 06:44 39.08891 -1.15456 16267 ft 356 kts 51°
2026-04-19 06:44 39.10383 -1.12951 15835 ft 353 kts 51°
2026-04-19 06:44 39.11871 -1.10460 15394 ft 351 kts 51°
2026-04-19 06:45 39.13350 -1.07980 14958 ft 349 kts 51°
2026-04-19 06:45 39.14817 -1.05517 14529 ft 346 kts 51°
2026-04-19 06:45 39.16268 -1.03079 14103 ft 344 kts 51°
2026-04-19 06:45 39.17710 -1.00651 13682 ft 341 kts 51°
2026-04-19 06:46 39.19142 -0.98240 13261 ft 339 kts 51°
2026-04-19 06:46 39.20564 -0.95843 12821 ft 337 kts 51°
2026-04-19 06:46 39.21977 -0.93460 12397 ft 335 kts 52°
2026-04-19 06:46 39.23380 -0.91093 11971 ft 333 kts 52°
2026-04-19 06:47 39.24778 -0.88731 11551 ft 331 kts 52°
2026-04-19 06:47 39.26163 -0.86389 11125 ft 329 kts 52°
2026-04-19 06:47 39.27538 -0.84062 10709 ft 327 kts 52°
2026-04-19 06:47 39.28911 -0.81769 10436 ft 318 kts 49°
2026-04-19 06:48 39.30573 -0.80029 10311 ft 304 kts 25°
2026-04-19 06:48 39.32559 -0.79371 10197 ft 291 kts
2026-04-19 06:48 39.34492 -0.79846 10009 ft 284 kts 338°
2026-04-19 06:48 39.36159 -0.81204 9628 ft 285 kts 321°
2026-04-19 06:49 39.37695 -0.82804 9227 ft 285 kts 324°
2026-04-19 06:49 39.39354 -0.84180 8878 ft 283 kts 332°
2026-04-19 06:49 39.41124 -0.85250 8522 ft 281 kts 339°
2026-04-19 06:49 39.42963 -0.86038 8179 ft 279 kts 345°
2026-04-19 06:50 39.44844 -0.86583 7841 ft 277 kts 350°
2026-04-19 06:50 39.46743 -0.86914 7510 ft 275 kts 355°
2026-04-19 06:50 39.48646 -0.87050 7183 ft 274 kts 359°
2026-04-19 06:50 39.50545 -0.87009 6851 ft 272 kts
2026-04-19 06:51 39.52417 -0.86800 6519 ft 271 kts
2026-04-19 06:51 39.54269 -0.86432 6193 ft 269 kts 10°
2026-04-19 06:51 39.56090 -0.85914 5872 ft 268 kts 14°
2026-04-19 06:51 39.57877 -0.85247 5549 ft 267 kts 18°
2026-04-19 06:52 39.59619 -0.84442 5220 ft 266 kts 21°
2026-04-19 06:52 39.61218 -0.83328 5016 ft 257 kts 45°
2026-04-19 06:52 39.62037 -0.81411 5006 ft 239 kts 82°
2026-04-19 06:52 39.61987 -0.79358 5016 ft 222 kts 103°
2026-04-19 06:53 39.61493 -0.77532 4992 ft 213 kts 117°
2026-04-19 06:53 39.60678 -0.75911 4569 ft 222 kts 131°
2026-04-19 06:53 39.59590 -0.74459 4062 ft 228 kts 136°
2026-04-19 06:53 39.58525 -0.72947 3632 ft 227 kts 126°
2026-04-19 06:54 39.57699 -0.71295 3472 ft 212 kts 118°
2026-04-19 06:54 39.57056 -0.69627 3429 ft 206 kts 115°
2026-04-19 06:54 39.56470 -0.68005 3329 ft 195 kts 114°
2026-04-19 06:54 39.55896 -0.66446 3038 ft 191 kts 115°
2026-04-19 06:55 39.55322 -0.64923 2756 ft 187 kts 115°
2026-04-19 06:55 39.54755 -0.63441 2525 ft 181 kts 116°
2026-04-19 06:55 39.54207 -0.62013 2273 ft 175 kts 116°
2026-04-19 06:55 39.53677 -0.60631 2041 ft 169 kts 116°
2026-04-19 06:56 39.53166 -0.59297 1814 ft 163 kts 115°
2026-04-19 06:56 39.52687 -0.58044 1601 ft 149 kts 115°
2026-04-19 06:56 39.52248 -0.56894 1410 ft 139 kts 115°
2026-04-19 06:56 39.51826 -0.55786 1241 ft 138 kts 115°
2026-04-19 06:57 39.51405 -0.54684 1070 ft 137 kts 115°
2026-04-19 06:57 39.50989 -0.53593 893 ft 137 kts 115°
2026-04-19 06:57 39.50578 -0.52497 713 ft 136 kts 115°
2026-04-19 06:57 39.50165 -0.51405 543 ft 136 kts 116°
2026-04-19 06:58 39.49743 -0.50320 357 ft 136 kts 116°
2026-04-19 06:58 39.49331 -0.49235 262 ft 131 kts 114°
2026-04-19 06:58 39.48986 -0.48324 257 ft 89 kts 116°
2026-04-19 06:58 39.48788 -0.47811 257 ft 43 kts 116°
2026-04-19 06:59 39.48672 -0.47509 257 ft 27 kts 117°
2026-04-19 06:59 39.48643 -0.47300 257 ft 21 kts 73°
2026-04-19 06:59 39.48683 -0.47211 257 ft 8 kts 44°
2026-04-19 06:59 39.48690 -0.47204 257 ft 0 kts 34°
2026-04-19 07:00 39.48708 -0.47192 257 ft 8 kts 21°
2026-04-19 07:00 39.48788 -0.47196 257 ft 14 kts 335°
2026-04-19 07:00 39.48877 -0.47247 257 ft 14 kts 330°
2026-04-19 07:00 39.48931 -0.47329 257 ft 6 kts 295°
2026-04-19 07:01 39.48962 -0.47368 257 ft 7 kts 354°
2026-04-19 07:01 39.49000 -0.47349 257 ft 6 kts 25°
2026-04-19 07:01 39.49031 -0.47336 257 ft 0 kts 14°